SARSAT 13 (METOP-B)

Last updated on Sat Aug 15 2026 00:02:48 GMT+0000 (Coordinated Universal Time)

1 38771U 12049A 26226.61388118 .00000035 00000+0 35992-4 0 9995 2 38771 98.6463 276.9350 0002724 151.9205 208.2119 14.21452872721564
UTC large
Height (km)
Speed (km/s)
/
Latitude / Longitude
Inclination (degrees)
Orbital Period (minutes)
Azimuth
Elevation
Range (km)
Doppler Factor

Next 0 passes for location: London (51.5072 / 0.1276)

No passes found over London.
SARSAT 13 (METOP-B)